Location: Peterborough
(44.3091°N, 78.3197°W)
Time: 07:20:28
(UTC-04:00)

Vanguard 1 Rocket - Pass Details

Date: 26 March 2023
Orbit: 655 x 4220 km, 34.3° (Epoch: 04 June)

Event Time Altitude Azimuth Distance (km) Brightness Sun altitude
Rises 03:33:51 0° 270° (W) 7,379 - -34.7°
Reaches altitude 10° 03:39:48 10° 265° (W) 5,810 - -33.9°
Maximum altitude 03:54:05 45° 201° (SSW) 2,333 - -32.1°
Exits shadow 03:56:45 38° 165° (SSE) 2,273 9.1 -31.8°
Drops below altitude 10° 04:01:42 10° 131° (SE) 3,175 10.2 -31.1°
Sets 04:03:59 0° 124° (ESE) 3,856 10.8 -30.8°
